Land O' Lakes, WI

9:32 AM CDT on June 22, 2017 (GMT -0500)
Kings Land O'Lakes

Weather History for KLNL - January, 2014

Change the Weather History Date:

Saturday, January 18, 2014

  Actual Average (KEGV) Record (KEGV)
Temperature  
Mean Temperature 10 °F -  
Max Temperature 19 °F 15 °F 42 °F (2017)
Min Temperature 0 °F -1 °F -27 °F (2005)
Degree Days  
Heating Degree Days 56    
Moisture  
Dew Point 6 °F    
Average Humidity 81    
Maximum Humidity 90    
Minimum Humidity 62    
Precipitation  
Precipitation 0.00 in - - ()
Sea Level Pressure  
Sea Level Pressure 29.72 in    
Wind  
Wind Speed 2 mph (SSW)    
Max Wind Speed 9 mph    
Max Gust Speed -    
Visibility 9 miles    
Events Snow    
Averages and records for this station are not official NWS values.
T = Trace of Precipitation, MM = Missing Value Source: NWS Daily Summary

Daily Weather History Graph

Daily Weather History Graph

Search for Another Location

Airport or City:

Trip Planner

Search our weather history database for the weather conditions in past years. The results will help you decide how hot, cold, wet, or windy it might be!

Date:

Astronomy

Jan. 18, 2014 Rise Set
Actual Time 7:33 AM CST 4:41 PM CST
Civil Twilight 6:59 AM CST 5:15 PM CST
Nautical Twilight 6:22 AM CST 5:52 PM CST
Astronomical Twilight 5:47 AM CST 6:27 PM CST
Moon 7:35 PM CST (1/18) 8:22 AM CST (1/18)
Length of Visible Light 10h 15m
Length of Day
9h 08m
Waning Gibbous, 94% of the Moon is Illuminated
Jan 18
Waning Gibbous
Jan 23
Last Quarter
Jan 30
New
Feb 6
First Quarter
Feb 14
Full

Hourly Weather History & Observations

Time (CST) Temp. Windchill Dew Point Humidity Pressure Visibility Wind Dir Wind Speed Gust Speed Precip Events Conditions
12:15 AM 8.8 °F - 6.4 °F 90% 29.76 in 10.0 mi Calm Calm - N/A   Overcast
12:35 AM 7.7 °F - 4.6 °F 87% 29.76 in 7.0 mi Calm Calm - N/A   Overcast
12:55 AM 9.0 °F - 5.9 °F 87% 29.76 in 10.0 mi Calm Calm - N/A   Overcast
1:15 AM 9.1 °F - 5.9 °F 87% 29.76 in 10.0 mi Calm Calm - N/A   Overcast
1:35 AM 9.1 °F 2.6 °F 5.9 °F 87% 29.76 in 10.0 mi SSW 3.5 mph - N/A   Overcast
1:55 AM 9.1 °F - 5.9 °F 87% 29.76 in 10.0 mi Calm Calm - N/A Snow Light Snow
2:15 AM 8.6 °F - 5.9 °F 89% 29.75 in 10.0 mi Calm Calm - N/A Snow Light Snow
2:35 AM 8.2 °F - 5.5 °F 89% 29.75 in 10.0 mi Calm Calm - N/A Snow Light Snow
2:55 AM 8.1 °F 1.4 °F 5.5 °F 89% 29.73 in 10.0 mi South 3.5 mph - N/A   Overcast
3:15 AM 8.2 °F - 5.5 °F 89% 29.73 in 7.0 mi Calm Calm - N/A Snow Light Snow
3:35 AM 7.7 °F 1.0 °F 5.2 °F 89% 29.73 in 10.0 mi SSE 3.5 mph - N/A Snow Light Snow
3:55 AM 7.7 °F -0.9 °F 5.0 °F 89% 29.72 in 7.0 mi ESE 4.6 mph - N/A Snow Light Snow
4:15 AM 7.3 °F -1.3 °F 4.8 °F 89% 29.72 in 10.0 mi SSE 4.6 mph - N/A   Overcast
4:35 AM 7.2 °F -1.5 °F 4.5 °F 89% 29.72 in 10.0 mi ESE 4.6 mph - N/A Snow Light Snow
4:55 AM 6.8 °F -2.0 °F 4.1 °F 89% 29.72 in 10.0 mi SE 4.6 mph - N/A Snow Light Snow
5:15 AM 6.8 °F -3.5 °F 4.1 °F 89% 29.72 in 10.0 mi ESE 5.8 mph - N/A Snow Light Snow
5:35 AM 6.8 °F -2.0 °F 3.9 °F 88% 29.72 in 10.0 mi ESE 4.6 mph - N/A   Overcast
5:55 AM 6.6 °F -0.3 °F 3.7 °F 88% 29.72 in 10.0 mi SE 3.5 mph - N/A   Overcast
6:15 AM 6.4 °F -0.5 °F 3.6 °F 88% 29.71 in 10.0 mi SE 3.5 mph - N/A   Overcast
6:35 AM 6.3 °F -2.6 °F 3.2 °F 87% 29.72 in 10.0 mi SE 4.6 mph - N/A   Overcast
6:55 AM 5.9 °F -4.5 °F 3.2 °F 89% 29.72 in 10.0 mi ESE 5.8 mph - N/A   Overcast
7:15 AM 5.9 °F - 3.0 °F 88% 29.72 in 10.0 mi Calm Calm - N/A Snow Light Snow
7:35 AM 5.7 °F - 2.7 °F 87% 29.73 in 7.0 mi Calm Calm - N/A Snow Light Snow
7:55 AM 5.5 °F - 2.5 °F 87% 29.73 in 10.0 mi Calm Calm - N/A Snow Light Snow
8:15 AM 5.7 °F - 2.7 °F 87% 29.74 in 10.0 mi Calm Calm - N/A Snow Light Snow
8:35 AM 5.5 °F -1.5 °F 2.5 °F 87% 29.76 in 10.0 mi ESE 3.5 mph - N/A Snow Light Snow
8:55 AM 5.4 °F -3.6 °F 2.3 °F 87% 29.76 in 7.0 mi East 4.6 mph - N/A Snow Light Snow
9:15 AM 5.9 °F - 3.0 °F 88% 29.76 in 7.0 mi Calm Calm - N/A Snow Light Snow
9:35 AM 6.4 °F - 3.6 °F 88% 29.77 in 5.0 mi Calm Calm - N/A Snow Light Snow
9:55 AM 7.7 °F - 4.8 °F 88% 29.78 in 10.0 mi Calm Calm - N/A Snow Light Snow
10:15 AM 8.8 °F - 5.7 °F 87% 29.78 in 5.0 mi Calm Calm - N/A Snow Light Snow
10:35 AM 9.7 °F 1.4 °F 5.9 °F 85% 29.78 in 10.0 mi South 4.6 mph - N/A Snow Light Snow
10:55 AM 10.2 °F - 5.7 °F 82% 29.78 in 7.0 mi Calm Calm - N/A Snow Light Snow
11:15 AM 11.7 °F - 5.4 °F 76% 29.78 in 10.0 mi Calm Calm - N/A Snow Light Snow
11:35 AM 12.7 °F - 5.9 °F 74% 29.77 in 7.0 mi Calm Calm - N/A Snow Light Snow
11:55 AM 13.8 °F - 6.3 °F 72% 29.77 in 10.0 mi Calm Calm - N/A   Clear
12:15 PM 14.5 °F 8.8 °F 6.6 °F 71% 29.76 in 10.0 mi West 3.5 mph - N/A   Clear
12:35 PM 15.8 °F 10.2 °F 7.5 °F 70% 29.75 in 10.0 mi SSW 3.5 mph - N/A   Clear
12:55 PM 16.7 °F 11.2 °F 7.7 °F 68% 29.75 in 10.0 mi SSW 3.5 mph - N/A   Clear
1:15 PM 17.6 °F 8.2 °F 7.7 °F 65% 29.75 in 10.0 mi SW 6.9 mph - N/A   Clear
1:35 PM 18.5 °F 11.7 °F 8.2 °F 64% 29.75 in 10.0 mi SW 4.6 mph - N/A   Clear
1:55 PM 19.0 °F 13.9 °F 8.6 °F 64% 29.75 in 10.0 mi SSW 3.5 mph - N/A   Clear
2:15 PM 19.4 °F - 8.8 °F 63% 29.75 in 10.0 mi Calm Calm - N/A   Clear
2:35 PM 19.4 °F 10.4 °F 8.6 °F 63% 29.75 in 10.0 mi NW 6.9 mph - N/A   Clear
2:55 PM 19.9 °F 14.9 °F 9.0 °F 62% 29.74 in 10.0 mi West 3.5 mph - N/A   Clear
3:15 PM 19.6 °F 13.0 °F 8.6 °F 62% 29.74 in 10.0 mi West 4.6 mph - N/A   Clear
3:35 PM 19.4 °F 10.4 °F 9.0 °F 64% 29.74 in 10.0 mi SW 6.9 mph - N/A   Clear
3:55 PM 18.5 °F 13.3 °F 8.4 °F 65% 29.75 in 10.0 mi WSW 3.5 mph - N/A   Clear
4:15 PM 17.6 °F 12.3 °F 8.1 °F 66% 29.74 in 10.0 mi WSW 3.5 mph - N/A   Clear
4:35 PM 16.2 °F - 7.7 °F 69% 29.75 in 10.0 mi Calm Calm - N/A   Clear
4:55 PM 11.1 °F - 6.6 °F 82% 29.76 in 10.0 mi Calm Calm - N/A   Clear
5:15 PM 8.2 °F - 4.8 °F 86% 29.76 in 10.0 mi Calm Calm - N/A   Clear
5:35 PM 9.9 °F 3.4 °F 5.7 °F 83% 29.74 in 10.0 mi SW 3.5 mph - N/A   Clear
5:55 PM 8.2 °F 1.6 °F 4.5 °F 85% 29.73 in 10.0 mi WSW 3.5 mph - N/A   Clear
6:15 PM 3.4 °F - 0.7 °F 89% 29.74 in 10.0 mi Calm Calm - N/A   Clear
6:35 PM 1.0 °F - -1.8 °F 88% 29.74 in 10.0 mi Calm Calm - N/A   Clear
6:55 PM -0.6 °F - -3.6 °F 87% 29.72 in 10.0 mi Calm Calm - N/A   Clear
7:15 PM -0.6 °F -10.6 °F -3.8 °F 86% 29.70 in 10.0 mi SW 4.6 mph - N/A   Clear
7:35 PM 3.6 °F - 1.2 °F 90% 29.70 in 10.0 mi Calm Calm - N/A   Clear
7:55 PM 5.9 °F -3.0 °F 3.2 °F 89% 29.68 in 10.0 mi SW 4.6 mph - N/A   Clear
8:15 PM 9.9 °F 3.4 °F 6.4 °F 86% 29.67 in 10.0 mi SW 3.5 mph - N/A   Scattered Clouds
8:35 PM 11.8 °F 3.9 °F 7.7 °F 83% 29.65 in 10.0 mi WSW 4.6 mph - N/A   Overcast
8:55 PM 14.5 °F 4.6 °F 8.2 °F 76% 29.62 in 10.0 mi WSW 6.9 mph - N/A   Overcast
9:15 PM 15.3 °F 6.6 °F 7.0 °F 70% 29.62 in 10.0 mi WSW 5.8 mph - N/A   Overcast
9:35 PM 15.3 °F 5.4 °F 6.6 °F 69% 29.61 in 10.0 mi WSW 6.9 mph - N/A   Mostly Cloudy
9:55 PM 15.4 °F 6.8 °F 6.3 °F 67% 29.59 in 10.0 mi SW 5.8 mph - N/A   Overcast
10:15 PM 15.6 °F 4.0 °F 6.1 °F 66% 29.57 in 10.0 mi SW 9.2 mph - N/A   Overcast
10:35 PM 15.6 °F 5.9 °F 7.7 °F 71% 29.57 in 5.0 mi SW 6.9 mph - N/A Snow Light Snow
10:55 PM 15.4 °F 5.6 °F 9.7 °F 78% 29.55 in 3.0 mi SW 6.9 mph - N/A Snow Light Snow
11:15 PM 15.3 °F 6.6 °F 11.3 °F 84% 29.53 in 2.0 mi SW 5.8 mph - N/A Snow Light Snow
11:35 PM 15.4 °F 6.8 °F 12.0 °F 86% 29.51 in 3.0 mi SW 5.8 mph - N/A Snow Light Snow
11:55 PM 15.6 °F 4.9 °F 12.2 °F 86% 29.50 in 3.0 mi SW 8.1 mph - N/A Snow Light Snow